Hyde Park, UT

1:19 PM MST on January 23, 2017 (GMT -0700)
Logan-Cache

Weather History for KLGU - June, 2013

Change the Weather History Date:

Wednesday, June 19, 2013

  Actual Average Record
Temperature  
Mean Temperature 63 °F -  
Max Temperature 78 °F 80 °F 95 °F (1961)
Min Temperature 45 °F 48 °F 34 °F (1973)
Degree Days  
Heating Degree Days 2    
Growing Degree Days 13 (Base 50)    
Moisture  
Dew Point 29 °F    
Average Humidity 28    
Maximum Humidity 68    
Minimum Humidity 12    
Precipitation  
Precipitation 0.00 in - - ()
Sea Level Pressure  
Sea Level Pressure 29.63 in    
Wind  
Wind Speed 10 mph (SW)    
Max Wind Speed 22 mph    
Max Gust Speed 37 mph    
Visibility 10 miles    
Events      
Averages and records for this station are not official NWS values.
T = Trace of Precipitation, MM = Missing Value Source: NWS Daily Summary

Daily Weather History Graph

Daily Weather History Graph

Search for Another Location

Airport or City:

Trip Planner

Search our weather history database for the weather conditions in past years. The results will help you decide how hot, cold, wet, or windy it might be!

Date:

Astronomy

Jun. 19, 2013 Rise Set
Actual Time 5:52 AM MDT 9:05 PM MDT
Civil Twilight 5:18 AM MDT 9:39 PM MDT
Nautical Twilight 4:33 AM MDT 10:23 PM MDT
Astronomical Twilight 3:40 AM MDT 11:17 PM MDT
Moon 5:00 PM MDT (6/19) 2:42 AM MDT (6/19)
Length of Visible Light 16h 21m
Length of Day
15h 13m
Waxing Gibbous, 81% of the Moon is Illuminated
Jun 19
Waxing Gibbous
Jun 23
Full
Jun 29
Last Quarter
Jul 8
New
Jul 15
First Quarter

Hourly Weather History & Observations

Time (MDT) Temp. Windchill Dew Point Humidity Pressure Visibility Wind Dir Wind Speed Gust Speed Precip Events Conditions
12:51 AM 72.0 °F - 23.0 °F 16% 29.45 in 10.0 mi SE 11.5 mph - N/A   Clear
1:51 AM 73.0 °F - 21.0 °F 14% 29.44 in 10.0 mi SSE 11.5 mph - N/A   Clear
2:51 AM 70.0 °F - 21.9 °F 16% 29.43 in 10.0 mi SSE 11.5 mph - N/A   Clear
3:51 AM 68.0 °F - 23.0 °F 18% 29.43 in 10.0 mi South 12.7 mph - N/A   Clear
4:51 AM 66.0 °F - 21.9 °F 19% 29.46 in 10.0 mi SSE 12.7 mph - N/A   Clear
5:51 AM 57.0 °F - 28.9 °F 34% 29.49 in 10.0 mi Calm Calm - N/A   Clear
6:51 AM 57.0 °F - 37.0 °F 47% 29.52 in 10.0 mi North 9.2 mph - N/A   Clear
7:51 AM 60.1 °F - 39.0 °F 46% 29.54 in 10.0 mi Calm Calm - N/A   Clear
8:51 AM 64.9 °F - 36.0 °F 34% 29.55 in 10.0 mi SSE 3.5 mph - N/A   Clear
9:51 AM 66.9 °F - 37.9 °F 34% 29.55 in 10.0 mi Calm Calm - N/A   Clear
10:51 AM 72.0 °F - 39.0 °F 30% 29.56 in 10.0 mi NE 3.5 mph - N/A   Clear
11:51 AM 75.0 °F - 37.0 °F 25% 29.56 in 10.0 mi South 8.1 mph - N/A   Clear
12:51 PM 78.1 °F - 37.0 °F 23% 29.56 in 10.0 mi WSW 13.8 mph 23.0 mph N/A   Partly Cloudy
1:51 PM 78.1 °F - 33.1 °F 19% 29.59 in 10.0 mi SSW 17.3 mph 27.6 mph N/A   Clear
2:51 PM 73.9 °F - 26.1 °F 17% 29.65 in 10.0 mi WSW 20.7 mph 31.1 mph N/A   Mostly Cloudy
3:51 PM 75.9 °F - 21.9 °F 13% 29.67 in 10.0 mi SW 16.1 mph 27.6 mph N/A   Partly Cloudy
4:51 PM 73.0 °F - 18.0 °F 12% 29.71 in 10.0 mi West 21.9 mph 36.8 mph N/A   Clear
5:51 PM 72.0 °F - 17.1 °F 12% 29.76 in 10.0 mi West 18.4 mph 24.2 mph N/A   Clear
6:51 PM 69.1 °F - 17.1 °F 14% 29.82 in 10.0 mi West 15.0 mph 29.9 mph N/A   Clear
7:51 PM 66.0 °F - 21.0 °F 18% 29.84 in 10.0 mi WSW 6.9 mph - N/A   Clear
8:51 PM 57.9 °F - 33.1 °F 39% 29.87 in 10.0 mi NNW 13.8 mph - N/A   Clear
9:51 PM 53.1 °F - 36.0 °F 52% 29.92 in 10.0 mi North 11.5 mph - N/A   Clear
10:51 PM 48.9 °F - 34.0 °F 56% 29.92 in 10.0 mi North 8.1 mph - N/A   Clear
11:51 PM 45.0 °F 41.2 °F 35.1 °F 68% 29.93 in 10.0 mi NW 6.9 mph - N/A   Clear